Meteo Giornale » Osservazioni meteo Stati Uniti (USA) » Taunton

ore: 15:52 - Osservazioni Meteo Taunton
Lat. 41° 52' N Lon. 71° 1' W Alt. 13 metri s.l.m.

coperto_pioggia

17 °C

Pioggia

Temp. 24 Ore

17 °C

24 °C

Sud/Sud-Est

7.4 Km/h

Dew point 14 °C

Umidità 82 %

Visibilità  10 Km

Il sole sorge alle ore 06:10

Il sole tramonta alle ore 19:17

Data e Ora Cielo e Fenomeni T °C DP °C Um. % Pres. hPa Vis. km Vento km/h
Oggi h: 15:52 coperto_pioggia Pioggia 17 14 82 1018 10 S/SE 7.4
Oggi h: 14:52 coperto_pioggia Pioggia 17 16 93 1018 10 N 5.5
Oggi h: 14:21 coperto_pioggia Pioggia Foschia 17 16 93 1017 8 S/SE 7.4
Oggi h: 14:11 coperto_pioggia Pioggia Foschia 17 16 93 1017 3 N 0
Oggi h: 14:08 coperto_pioggia Pioggia Foschia 17 16 93 1017 5 N 5.5
Oggi h: 13:52 coperto_pioggia Pioggia 18 16 88 1018 10 N 5.5
Oggi h: 12:52 coperto Coperto 19 14 72 1017 10 N 7.4
Oggi h: 11:52 coperto Coperto 21 17 77 1017 10 N 5.5
Oggi h: 10:52 coperto_pioggia Pioggia 21 19 88 1017 10 SE 9.3
Oggi h: 09:52 coperto_pioggia Pioggia 21 19 88 1018 10 N 0
Oggi h: 08:52 coperto_pioggia Pioggia 19 18 93 1017 10 N 0
Oggi h: 07:52 coperto Coperto 19 18 93 1017 10 N 0
Oggi h: 06:52 coperto Coperto 18 17 93 1017 10 N 0
Oggi h: 05:52 coperto Coperto 18 17 93 1017 10 N 0
Oggi h: 04:52 molto_nuvoloso Molto Nuvoloso 18 17 93 1017 10 N 0
Oggi h: 03:52 coperto Coperto 18 17 93 1017 10 N 0
Oggi h: 02:52 coperto Coperto 18 17 93 1018 10 N 0
Oggi h: 01:52 coperto Coperto 18 17 93 1018 10 N 5.5
Oggi h: 00:52 coperto Coperto 19 17 88 1018 10 N 0
Ieri h: 23:52 molto_nuvoloso Molto Nuvoloso 19 17 88 1018 10 N 5.5
Ieri h: 22:52 molto_nuvoloso Molto Nuvoloso 19 17 88 1018 10 N 0
Ieri h: 21:52 molto_nuvoloso Molto Nuvoloso 19 17 88 1019 10 N 5.5
Ieri h: 20:52 sereno Sereno 19 17 88 1018 10 N 0
Ieri h: 19:52 coperto Coperto 20 17 82 1019 10 S/SO 7.4
Ieri h: 18:52 sereno Sereno 21 17 77 1019 10 S 7.4
Ieri h: 17:52 sereno Sereno 23 15 60 1019 10 N 7.4
Ieri h: 16:52 sereno Sereno 24 15 57 1018 10 S 13